Time,TemperatureF,DewpointF,PressureIn,WindDirection,WindDirectionDegrees,WindSpeedMPH,WindSpeedGustMPH,Humidity,HourlyPrecipIn,Conditions,Clouds,dailyrainin,SolarRadiationWatts/m^2,SoftwareType,DateUTC
2013-02-05 00:00:00,42.3,29.8,29.93,South,174,0.0,0.0,61,0.00,,CLR,0.00,0.00,VWS V14.01,2013-02-05 05:00:00,
2013-02-05 00:05:00,42.3,30.2,29.92,South,174,0.0,0.0,62,0.00,,SCT110,0.00,0.00,VWS V14.01,2013-02-05 05:05:00,
2013-02-05 00:10:00,42.5,30.4,29.92,South,174,0.0,0.0,62,0.00,,SCT110,0.00,0.00,VWS V14.01,2013-02-05 05:10:00,
2013-02-05 00:15:00,42.6,30.9,29.92,South,174,0.0,0.0,63,0.00,,SCT110,0.00,0.00,VWS V14.01,2013-02-05 05:15:00,
2013-02-05 00:20:00,42.6,31.3,29.91,South,174,0.0,0.0,64,0.00,,SCT110,0.00,0.00,VWS V14.01,2013-02-05 05:20:00,
2013-02-05 00:25:00,42.6,32.0,29.91,South,174,0.0,0.0,66,0.00,,SCT110,0.00,0.00,VWS V14.01,2013-02-05 05:25:00,
2013-02-05 00:30:00,42.6,31.3,29.91,South,174,0.0,0.0,64,0.00,,SCT110,0.00,0.00,VWS V14.01,2013-02-05 05:30:00,
2013-02-05 00:35:00,42.6,31.3,29.90,South,174,0.0,0.0,64,0.00,,SCT110,0.00,0.00,VWS V14.01,2013-02-05 05:35:00,
2013-02-05 00:40:00,42.8,31.5,29.90,South,174,0.0,0.0,64,0.00,,SCT110,0.00,0.00,VWS V14.01,2013-02-05 05:40:00,
2013-02-05 00:45:00,42.8,31.9,29.90,South,174,0.0,0.0,65,0.00,,SCT110,0.00,0.00,VWS V14.01,2013-02-05 05:45:00,
2013-02-05 00:50:00,42.8,32.6,29.90,South,174,0.0,1.0,67,0.00,,SCT110,0.00,0.00,VWS V14.01,2013-02-05 05:50:00,
2013-02-05 00:55:00,42.8,31.5,29.90,South,174,0.0,1.0,64,0.00,,SCT110,0.00,0.00,VWS V14.01,2013-02-05 05:55:00,
2013-02-05 01:00:00,42.6,31.7,29.90,South,174,0.0,1.0,65,0.00,,SCT110,0.00,0.00,VWS V14.01,2013-02-05 06:00:00,
2013-02-05 01:05:00,42.6,31.3,29.90,South,174,0.0,0.0,64,0.00,,OVC110,0.00,0.00,VWS V14.01,2013-02-05 06:05:00,
2013-02-05 01:10:00,42.6,32.0,29.90,South,174,0.0,0.0,66,0.00,,OVC110,0.00,0.00,VWS V14.01,2013-02-05 06:10:00,
2013-02-05 01:15:00,42.6,32.4,29.90,South,174,3.0,3.0,67,0.00,,OVC110,0.00,0.00,VWS V14.01,2013-02-05 06:15:00,
2013-02-05 01:20:00,42.8,31.1,29.90,South,174,2.0,3.0,63,0.00,,OVC110,0.00,0.00,VWS V14.01,2013-02-05 06:20:00,
2013-02-05 01:25:00,42.8,29.9,29.90,West,265,0.0,4.0,60,0.00,,OVC110,0.00,0.00,VWS V14.01,2013-02-05 06:25:00,
2013-02-05 01:30:00,42.9,31.6,29.90,West,265,0.0,4.0,64,0.00,,OVC110,0.00,0.00,VWS V14.01,2013-02-05 06:30:00,
2013-02-05 01:35:00,42.9,31.6,29.89,West,265,0.0,1.0,64,0.00,,OVC110,0.00,0.00,VWS V14.01,2013-02-05 06:35:00,
2013-02-05 01:40:00,42.6,31.7,29.89,West,265,0.0,1.0,65,0.00,,OVC110,0.00,0.00,VWS V14.01,2013-02-05 06:40:00,
2013-02-05 01:45:00,42.5,31.2,29.89,West,265,0.0,1.0,64,0.00,,OVC110,0.00,0.00,VWS V14.01,2013-02-05 06:45:00,
2013-02-05 01:50:00,42.3,30.2,29.89,West,265,0.0,1.0,62,0.00,,OVC110,0.00,0.00,VWS V14.01,2013-02-05 06:50:00,
2013-02-05 01:55:00,42.2,29.3,29.89,West,265,0.0,1.0,60,0.00,,OVC110,0.00,0.00,VWS V14.01,2013-02-05 06:55:00,
2013-02-05 02:00:00,41.9,28.2,29.89,West,265,0.0,1.0,58,0.00,,OVC110,0.00,0.00,VWS V14.01,2013-02-05 07:00:00,
2013-02-05 02:05:00,42.1,30.0,29.88,West,265,0.0,0.0,62,0.00,,OVC110,0.00,0.00,VWS V14.01,2013-02-05 07:05:00,
2013-02-05 02:10:00,41.8,31.3,29.88,West,265,0.0,1.0,66,0.00,,OVC110,0.00,0.00,VWS V14.01,2013-02-05 07:10:00,
2013-02-05 02:15:00,41.5,30.6,29.88,West,265,0.0,1.0,65,0.00,,OVC110,0.00,0.00,VWS V14.01,2013-02-05 07:15:00,
2013-02-05 02:20:00,41.1,29.9,29.88,West,265,0.0,1.0,64,0.00,,OVC110,0.00,0.00,VWS V14.01,2013-02-05 07:20:00,
2013-02-05 02:25:00,40.9,31.9,29.88,West,265,0.0,1.0,70,0.00,,OVC110,0.00,0.00,VWS V14.01,2013-02-05 07:25:00,
2013-02-05 02:30:00,40.9,31.5,29.88,West,265,0.0,1.0,69,0.00,,OVC110,0.00,0.00,VWS V14.01,2013-02-05 07:30:00,
2013-02-05 02:35:00,40.9,32.6,29.88,West,264,0.0,0.0,72,0.00,,OVC110,0.00,0.00,VWS V14.01,2013-02-05 07:35:00,
2013-02-05 02:40:00,40.9,33.6,29.88,West,264,0.0,0.0,75,0.00,,OVC110,0.00,0.00,VWS V14.01,2013-02-05 07:40:00,
2013-02-05 02:45:00,40.6,33.0,29.88,West,264,0.0,0.0,74,0.00,,OVC110,0.00,0.00,VWS V14.01,2013-02-05 07:45:00,
2013-02-05 02:50:00,40.5,32.2,29.88,West,264,0.0,0.0,72,0.00,,OVC110,0.00,0.00,VWS V14.01,2013-02-05 07:50:00,
2013-02-05 02:55:00,40.2,32.2,29.88,West,264,0.0,0.0,73,0.00,,OVC110,0.00,0.00,VWS V14.01,2013-02-05 07:55:00,
2013-02-05 03:00:00,40.2,32.6,29.88,West,264,0.0,0.0,74,0.00,,OVC110,0.00,0.00,VWS V14.01,2013-02-05 08:00:00,
2013-02-05 03:05:00,40.3,33.3,29.88,West,264,0.0,0.0,76,0.00,,CLR,0.00,0.00,VWS V14.01,2013-02-05 08:05:00,
2013-02-05 03:10:00,40.2,32.9,29.88,West,264,0.0,0.0,75,0.00,,CLR,0.00,0.00,VWS V14.01,2013-02-05 08:10:00,
2013-02-05 03:15:00,40.1,32.8,29.88,West,264,0.0,0.0,75,0.00,,CLR,0.00,0.00,VWS V14.01,2013-02-05 08:15:00,
2013-02-05 03:20:00,40.3,32.7,29.87,WNW,290,4.0,5.0,74,0.00,,CLR,0.00,0.00,VWS V14.01,2013-02-05 08:20:00,
2013-02-05 03:25:00,40.2,32.9,29.87,WNW,289,0.0,5.0,75,0.00,,CLR,0.00,0.00,VWS V14.01,2013-02-05 08:25:00,
2013-02-05 03:30:00,39.6,32.0,29.87,WNW,286,0.0,5.0,74,0.00,,CLR,0.00,0.00,VWS V14.01,2013-02-05 08:30:00,
2013-02-05 03:35:00,39.2,31.6,29.87,WNW,286,0.0,3.0,74,0.00,,CLR,0.00,0.00,VWS V14.01,2013-02-05 08:35:00,
2013-02-05 03:40:00,38.9,32.3,29.87,WNW,286,0.0,3.0,77,0.00,,CLR,0.00,0.00,VWS V14.01,2013-02-05 08:40:00,
2013-02-05 03:45:00,38.5,31.6,29.87,WNW,286,0.0,3.0,76,0.00,,CLR,0.00,0.00,VWS V14.01,2013-02-05 08:45:00,
2013-02-05 03:50:00,38.2,30.3,29.87,WNW,286,0.0,3.0,73,0.00,,CLR,0.00,0.00,VWS V14.01,2013-02-05 08:50:00,
2013-02-05 03:55:00,38.3,29.4,29.87,WNW,286,0.0,3.0,70,0.00,,CLR,0.00,0.00,VWS V14.01,2013-02-05 08:55:00,
2013-02-05 04:00:00,38.5,29.6,29.87,WNW,286,0.0,3.0,70,0.00,,CLR,0.00,0.00,VWS V14.01,2013-02-05 09:00:00,
2013-02-05 04:05:00,38.6,29.3,29.86,WNW,286,0.0,0.0,69,0.00,,BKN070,0.00,0.00,VWS V14.01,2013-02-05 09:05:00,
2013-02-05 04:10:00,38.5,29.9,29.86,WNW,286,0.0,2.0,71,0.00,,BKN070,0.00,0.00,VWS V14.01,2013-02-05 09:10:00,
2013-02-05 04:15:00,38.2,28.6,29.86,WNW,286,0.0,2.0,68,0.00,,BKN070,0.00,0.00,VWS V14.01,2013-02-05 09:15:00,
2013-02-05 04:20:00,38.5,29.9,29.87,WNW,286,2.0,2.0,71,0.00,,BKN070,0.00,0.00,VWS V14.01,2013-02-05 09:20:00,
2013-02-05 04:25:00,38.5,31.0,29.87,WNW,286,0.0,3.0,74,0.00,,BKN070,0.00,0.00,VWS V14.01,2013-02-05 09:25:00,
2013-02-05 04:30:00,38.3,29.4,29.87,WNW,286,0.0,3.0,70,0.00,,BKN070,0.00,0.00,VWS V14.01,2013-02-05 09:30:00,
2013-02-05 04:35:00,38.5,28.5,29.87,WNW,286,0.0,0.0,67,0.00,,BKN070,0.00,0.00,VWS V14.01,2013-02-05 09:35:00,
2013-02-05 04:40:00,38.5,30.3,29.87,WNW,286,0.0,0.0,72,0.00,,BKN070,0.00,0.00,VWS V14.01,2013-02-05 09:40:00,
2013-02-05 04:45:00,38.5,30.3,29.87,WNW,286,0.0,0.0,72,0.00,,BKN070,0.00,0.00,VWS V14.01,2013-02-05 09:45:00,
2013-02-05 04:50:00,38.5,29.9,29.87,WNW,286,0.0,0.0,71,0.00,,BKN070,0.00,0.00,VWS V14.01,2013-02-05 09:50:00,
2013-02-05 04:55:00,38.6,30.0,29.87,WNW,286,1.0,1.0,71,0.00,,BKN070,0.00,0.00,VWS V14.01,2013-02-05 09:55:00,
2013-02-05 05:00:00,38.6,30.0,29.87,WNW,286,0.0,2.0,71,0.00,,BKN070,0.00,0.00,VWS V14.01,2013-02-05 10:00:00,
2013-02-05 05:05:00,38.6,29.3,29.87,WNW,286,0.0,0.0,69,0.00,,FEW075,0.00,0.00,VWS V14.01,2013-02-05 10:05:00,
2013-02-05 05:10:00,38.8,29.5,29.87,WNW,286,0.0,0.0,69,0.00,,FEW075,0.00,0.00,VWS V14.01,2013-02-05 10:10:00,
2013-02-05 05:15:00,38.9,30.3,29.87,WNW,286,0.0,1.0,71,0.00,,FEW075,0.00,0.00,VWS V14.01,2013-02-05 10:15:00,
2013-02-05 05:20:00,38.8,30.6,29.87,WNW,286,0.0,1.0,72,0.00,,FEW075,0.00,0.00,VWS V14.01,2013-02-05 10:20:00,
2013-02-05 05:25:00,38.8,31.2,29.87,WNW,286,0.0,1.0,74,0.00,,FEW075,0.00,0.00,VWS V14.01,2013-02-05 10:25:00,
2013-02-05 05:30:00,38.9,32.3,29.87,WNW,286,0.0,1.0,77,0.00,,FEW075,0.00,0.00,VWS V14.01,2013-02-05 10:30:00,
2013-02-05 05:35:00,38.9,32.6,29.88,WNW,286,0.0,0.0,78,0.00,,FEW075,0.00,0.00,VWS V14.01,2013-02-05 10:35:00,
2013-02-05 05:40:00,38.8,31.2,29.88,WNW,286,0.0,0.0,74,0.00,,FEW075,0.00,0.00,VWS V14.01,2013-02-05 10:40:00,
2013-02-05 05:45:00,38.8,31.6,29.88,WNW,286,0.0,0.0,75,0.00,,FEW075,0.00,0.00,VWS V14.01,2013-02-05 10:45:00,
2013-02-05 05:50:00,38.9,32.3,29.88,WNW,286,0.0,0.0,77,0.00,,FEW075,0.00,0.00,VWS V14.01,2013-02-05 10:50:00,
2013-02-05 05:55:00,38.9,32.6,29.88,WNW,286,0.0,0.0,78,0.00,,FEW075,0.00,0.00,VWS V14.01,2013-02-05 10:55:00,
2013-02-05 06:00:00,38.9,32.6,29.88,WNW,286,0.0,0.0,78,0.00,,FEW075,0.00,0.00,VWS V14.01,2013-02-05 11:00:00,
2013-02-05 06:05:00,38.9,32.0,29.88,WNW,286,0.0,0.0,76,0.00,,BKN080,0.00,0.00,VWS V14.01,2013-02-05 11:05:00,
2013-02-05 06:10:00,38.9,32.0,29.88,WNW,286,0.0,0.0,76,0.00,,BKN080,0.00,0.00,VWS V14.01,2013-02-05 11:10:00,
2013-02-05 06:15:00,38.8,32.2,29.88,WNW,286,0.0,1.0,77,0.00,,BKN080,0.00,0.00,VWS V14.01,2013-02-05 11:15:00,
2013-02-05 06:20:00,38.8,32.9,29.87,WNW,286,0.0,1.0,79,0.00,,BKN080,0.00,0.00,VWS V14.01,2013-02-05 11:20:00,
2013-02-05 06:25:00,38.8,33.8,29.87,WNW,286,0.0,3.0,82,0.00,,BKN080,0.00,0.00,VWS V14.01,2013-02-05 11:25:00,
2013-02-05 06:30:00,38.5,33.5,29.87,WNW,284,0.0,3.0,82,0.00,,BKN080,0.00,0.00,VWS V14.01,2013-02-05 11:30:00,
2013-02-05 06:35:00,38.2,33.2,29.88,WNW,284,0.0,0.0,82,0.00,,BKN080,0.00,0.00,VWS V14.01,2013-02-05 11:35:00,
2013-02-05 06:40:00,38.0,32.7,29.88,WNW,284,0.0,0.0,81,0.00,,BKN080,0.00,0.00,VWS V14.01,2013-02-05 11:40:00,
2013-02-05 06:45:00,38.0,32.7,29.88,WNW,284,0.0,0.0,81,0.00,,BKN080,0.00,0.00,VWS V14.01,2013-02-05 11:45:00,
2013-02-05 06:50:00,38.2,33.5,29.88,WNW,284,0.0,3.0,83,0.00,,BKN080,0.00,0.00,VWS V14.01,2013-02-05 11:50:00,
2013-02-05 06:55:00,38.0,33.0,29.88,WNW,284,0.0,3.0,82,0.00,,BKN080,0.00,0.00,VWS V14.01,2013-02-05 11:55:00,
2013-02-05 07:00:00,37.9,33.2,29.88,WNW,284,0.0,3.0,83,0.00,,BKN080,0.00,0.00,VWS V14.01,2013-02-05 12:00:00,
2013-02-05 07:05:00,37.6,32.9,29.89,WNW,284,0.0,0.0,83,0.00,,FEW050,0.00,0.00,VWS V14.01,2013-02-05 12:05:00,
2013-02-05 07:10:00,37.3,32.3,29.89,WNW,283,0.0,1.0,82,0.00,,FEW050,0.00,0.00,VWS V14.01,2013-02-05 12:10:00,
2013-02-05 07:15:00,37.0,31.7,29.89,West,259,0.0,1.0,81,0.00,,FEW050,0.00,0.00,VWS V14.01,2013-02-05 12:15:00,
2013-02-05 07:20:00,36.9,31.6,29.89,West,259,0.0,1.0,81,0.00,,FEW050,0.00,0.00,VWS V14.01,2013-02-05 12:20:00,
2013-02-05 07:25:00,36.9,31.6,29.89,West,259,0.0,1.0,81,0.00,,FEW050,0.00,7.00,VWS V14.01,2013-02-05 12:25:00,
2013-02-05 07:30:00,36.9,31.9,29.89,West,259,0.0,1.0,82,0.00,,FEW050,0.00,11.00,VWS V14.01,2013-02-05 12:30:00,
2013-02-05 07:35:00,36.9,31.9,29.90,West,259,0.0,0.0,82,0.00,,FEW050,0.00,11.00,VWS V14.01,2013-02-05 12:35:00,
2013-02-05 07:40:00,37.2,32.5,29.90,West,259,0.0,0.0,83,0.00,,FEW050,0.00,14.00,VWS V14.01,2013-02-05 12:40:00,
2013-02-05 07:45:00,37.5,32.5,29.90,WSW,243,0.0,1.0,82,0.00,,FEW050,0.00,12.00,VWS V14.01,2013-02-05 12:45:00,
2013-02-05 07:50:00,37.8,33.1,29.90,WSW,243,0.0,1.0,83,0.00,,FEW050,0.00,9.00,VWS V14.01,2013-02-05 12:50:00,
2013-02-05 07:55:00,38.0,32.7,29.90,WSW,243,0.0,1.0,81,0.00,,FEW050,0.00,7.00,VWS V14.01,2013-02-05 12:55:00,
2013-02-05 08:00:00,38.2,32.9,29.90,WSW,243,0.0,1.0,81,0.00,,FEW050,0.00,12.00,VWS V14.01,2013-02-05 13:00:00,
2013-02-05 08:05:00,38.3,32.4,29.91,WSW,243,0.0,0.0,79,0.00,,OVC080,0.00,21.00,VWS V14.01,2013-02-05 13:05:00,
2013-02-05 08:10:00,38.5,32.6,29.91,WSW,243,0.0,0.0,79,0.00,,OVC080,0.00,16.00,VWS V14.01,2013-02-05 13:10:00,
2013-02-05 08:15:00,38.6,32.7,29.91,WSW,243,2.0,2.0,79,0.00,,OVC080,0.00,23.00,VWS V14.01,2013-02-05 13:15:00,
2013-02-05 08:20:00,38.5,32.2,29.91,WSW,243,0.0,2.0,78,0.00,,OVC080,0.00,30.00,VWS V14.01,2013-02-05 13:20:00,
2013-02-05 08:25:00,38.6,32.7,29.91,WSW,243,0.0,2.0,79,0.00,,OVC080,0.00,21.00,VWS V14.01,2013-02-05 13:25:00,
2013-02-05 08:30:00,38.6,33.0,29.91,WSW,243,0.0,2.0,80,0.00,,OVC080,0.00,33.00,VWS V14.01,2013-02-05 13:30:00,
2013-02-05 08:35:00,38.8,33.5,29.91,WSW,243,0.0,0.0,81,0.00,,OVC080,0.00,47.00,VWS V14.01,2013-02-05 13:35:00,
2013-02-05 08:40:00,38.8,33.5,29.91,WSW,243,0.0,1.0,81,0.00,,OVC080,0.00,39.00,VWS V14.01,2013-02-05 13:40:00,
2013-02-05 08:44:00,38.8,33.8,29.91,WSW,243,0.0,1.0,82,0.00,,OVC080,0.00,35.00,VWS V14.01,2013-02-05 13:44:00,
2013-02-05 08:49:00,39.1,34.7,29.91,WSW,243,0.0,1.0,84,0.00,,OVC080,0.00,56.00,VWS V14.01,2013-02-05 13:49:00,
2013-02-05 08:54:00,39.2,34.5,29.91,WSW,243,0.0,1.0,83,0.00,,OVC080,0.00,77.00,VWS V14.01,2013-02-05 13:54:00,
2013-02-05 08:59:00,39.5,34.8,29.91,WSW,243,0.0,1.0,83,0.00,,OVC080,0.00,77.00,VWS V14.01,2013-02-05 13:59:00,
2013-02-05 09:00:00,46.1,35.4,29.90,SSE,164,0.0,4.0,66,0.00,,CLR,0.00,413.00,VWS V14.01,2013-02-05 14:00:00,
2013-02-05 09:04:00,39.8,34.8,29.91,WSW,244,0.0,3.0,82,0.00,,OVC049,0.00,81.00,VWS V14.01,2013-02-05 14:04:00,
2013-02-05 09:09:00,40.1,35.1,29.91,WSW,244,0.0,3.0,82,0.00,,OVC049,0.00,91.00,VWS V14.01,2013-02-05 14:09:00,
2013-02-05 09:14:00,40.6,34.3,29.91,SW,232,0.0,3.0,78,0.00,,OVC049,0.00,100.00,VWS V14.01,2013-02-05 14:14:00,
2013-02-05 09:19:00,40.8,33.5,29.90,West,265,3.0,4.0,75,0.00,,OVC049,0.00,86.00,VWS V14.01,2013-02-05 14:19:00,
2013-02-05 09:24:00,41.1,32.4,29.90,West,273,0.0,5.0,71,0.00,,OVC049,0.00,174.00,VWS V14.01,2013-02-05 14:24:00,
2013-02-05 09:29:00,41.5,33.2,29.90,West,273,0.0,5.0,72,0.00,,OVC049,0.00,113.00,VWS V14.01,2013-02-05 14:29:00,
2013-02-05 09:30:00,48.9,34.8,29.90,SSE,152,1.0,6.0,58,0.00,,CLR,0.00,192.00,VWS V14.01,2013-02-05 14:30:00,
2013-02-05 09:34:00,41.8,33.5,29.91,WSW,244,0.0,0.0,72,0.00,,OVC049,0.00,128.00,VWS V14.01,2013-02-05 14:34:00,
2013-02-05 09:39:00,42.2,33.1,29.91,WSW,241,0.0,2.0,70,0.00,,OVC049,0.00,91.00,VWS V14.01,2013-02-05 14:39:00,
2013-02-05 09:44:00,42.6,33.5,29.91,WSW,241,0.0,2.0,70,0.00,,OVC049,0.00,192.00,VWS V14.01,2013-02-05 14:44:00,
2013-02-05 09:49:00,43.2,33.4,29.91,WSW,240,0.0,2.0,68,0.00,,OVC049,0.00,434.00,VWS V14.01,2013-02-05 14:49:00,
2013-02-05 09:54:00,44.1,35.0,29.91,WSW,240,0.0,2.0,70,0.00,,OVC049,0.00,403.00,VWS V14.01,2013-02-05 14:54:00,
2013-02-05 09:59:00,45.2,35.3,29.91,SSE,165,4.0,4.0,68,0.00,,OVC049,0.00,413.00,VWS V14.01,2013-02-05 14:59:00,
2013-02-05 10:00:00,53.5,37.3,29.88,SSW,198,3.0,12.0,54,0.00,,CLR,0.00,547.00,VWS V14.01,2013-02-05 15:00:00,
2013-02-05 10:04:00,46.4,35.7,29.90,WSW,253,0.0,2.0,66,0.00,,BKN090,0.00,420.00,VWS V14.01,2013-02-05 15:04:00,
2013-02-05 10:09:00,47.3,35.8,29.90,SW,230,1.0,2.0,64,0.00,,BKN090,0.00,436.00,VWS V14.01,2013-02-05 15:09:00,
2013-02-05 10:14:00,48.2,36.2,29.90,South,182,0.0,4.0,63,0.00,,BKN090,0.00,466.00,VWS V14.01,2013-02-05 15:14:00,
2013-02-05 10:19:00,48.2,36.6,29.90,South,188,0.0,4.0,64,0.00,,BKN090,0.00,97.00,VWS V14.01,2013-02-05 15:19:00,
2013-02-05 10:24:00,48.3,35.1,29.90,SSE,159,2.0,5.0,60,0.00,,BKN090,0.00,220.00,VWS V14.01,2013-02-05 15:24:00,
2013-02-05 10:29:00,48.6,35.4,29.90,SE,131,3.0,6.0,60,0.00,,BKN090,0.00,503.00,VWS V14.01,2013-02-05 15:29:00,
2013-02-05 10:30:00,56.3,40.8,29.87,West,271,1.0,11.0,56,0.00,,CLR,0.00,598.00,VWS V14.01,2013-02-05 15:30:00,
2013-02-05 10:34:00,49.2,35.1,29.90,SSE,150,4.0,4.0,58,0.00,,BKN090,0.00,527.00,VWS V14.01,2013-02-05 15:34:00,
2013-02-05 10:39:00,49.9,35.7,29.90,SE,140,6.0,6.0,58,0.00,,BKN090,0.00,142.00,VWS V14.01,2013-02-05 15:39:00,
2013-02-05 10:44:00,50.5,35.8,29.90,ESE,122,5.0,9.0,57,0.00,,BKN090,0.00,531.00,VWS V14.01,2013-02-05 15:44:00,
2013-02-05 10:49:00,51.3,36.2,29.89,SE,132,3.0,12.0,56,0.00,,BKN090,0.00,663.00,VWS V14.01,2013-02-05 15:49:00,
2013-02-05 10:54:00,52.3,37.1,29.89,SSE,158,10.0,12.0,56,0.00,,BKN090,0.00,594.00,VWS V14.01,2013-02-05 15:54:00,
2013-02-05 10:59:00,53.1,37.4,29.89,South,169,10.0,12.0,55,0.00,,BKN090,0.00,548.00,VWS V14.01,2013-02-05 15:59:00,
2013-02-05 11:00:00,56.6,43.8,29.87,WSW,242,8.0,24.0,62,0.00,,CLR,0.00,255.00,VWS V14.01,2013-02-05 16:00:00,
2013-02-05 11:04:00,53.8,37.6,29.88,SSE,165,0.0,4.0,54,0.00,,SCT060,0.00,548.00,VWS V14.01,2013-02-05 16:04:00,
2013-02-05 11:09:00,54.4,37.6,29.88,SSE,150,2.0,6.0,53,0.00,,SCT060,0.00,629.00,VWS V14.01,2013-02-05 16:09:00,
2013-02-05 11:14:00,55.0,39.2,29.88,SSE,164,5.0,11.0,55,0.00,,SCT060,0.00,566.00,VWS V14.01,2013-02-05 16:14:00,
2013-02-05 11:19:00,55.1,39.7,29.87,SSE,151,1.0,11.0,56,0.00,,SCT060,0.00,677.00,VWS V14.01,2013-02-05 16:19:00,
2013-02-05 11:24:00,55.6,38.8,29.87,South,180,1.0,11.0,53,0.00,,SCT060,0.00,612.00,VWS V14.01,2013-02-05 16:24:00,
2013-02-05 11:29:00,56.0,40.1,29.87,SSE,161,1.0,11.0,55,0.00,,SCT060,0.00,631.00,VWS V14.01,2013-02-05 16:29:00,
2013-02-05 11:30:00,57.2,43.0,29.86,WNW,291,6.0,19.0,59,0.00,,CLR,0.00,352.00,VWS V14.01,2013-02-05 16:30:00,
2013-02-05 11:34:00,56.5,40.5,29.87,NE,56,4.0,9.0,55,0.00,,SCT060,0.00,592.00,VWS V14.01,2013-02-05 16:34:00,
2013-02-05 11:39:00,56.7,41.2,29.87,West,267,6.0,12.0,56,0.00,,SCT060,0.00,661.00,VWS V14.01,2013-02-05 16:39:00,
2013-02-05 11:44:00,56.9,41.8,29.87,WSW,244,3.0,12.0,57,0.00,,SCT060,0.00,221.00,VWS V14.01,2013-02-05 16:44:00,
2013-02-05 11:49:00,57.0,42.4,29.87,West,280,15.0,17.0,58,0.00,,SCT060,0.00,313.00,VWS V14.01,2013-02-05 16:49:00,
2013-02-05 11:54:00,57.0,42.4,29.87,West,263,9.0,24.0,58,0.00,,SCT060,0.00,267.00,VWS V14.01,2013-02-05 16:54:00,
2013-02-05 11:59:00,56.7,42.5,29.87,SW,215,18.0,24.0,59,0.00,,SCT060,0.00,250.00,VWS V14.01,2013-02-05 16:59:00,
2013-02-05 12:00:00,57.3,43.5,29.85,WNW,294,1.0,18.0,60,0.00,,CLR,0.00,647.00,VWS V14.01,2013-02-05 17:00:00,
2013-02-05 12:04:00,56.5,43.2,29.87,WSW,252,14.0,18.0,61,0.00,,FEW033,0.00,281.00,VWS V14.01,2013-02-05 17:04:00,
2013-02-05 12:09:00,56.6,42.5,29.87,WSW,238,6.0,18.0,59,0.00,,FEW033,0.00,264.00,VWS V14.01,2013-02-05 17:09:00,
2013-02-05 12:14:00,56.7,42.5,29.87,WSW,252,3.0,18.0,59,0.00,,FEW033,0.00,322.00,VWS V14.01,2013-02-05 17:14:00,
2013-02-05 12:19:00,56.9,42.7,29.87,WSW,240,7.0,18.0,59,0.00,,FEW033,0.00,519.00,VWS V14.01,2013-02-05 17:19:00,
2013-02-05 12:24:00,57.2,42.6,29.87,West,281,7.0,18.0,58,0.00,,FEW033,0.00,287.00,VWS V14.01,2013-02-05 17:24:00,
2013-02-05 12:29:00,57.0,43.3,29.87,WSW,245,2.0,19.0,60,0.00,,FEW033,0.00,362.00,VWS V14.01,2013-02-05 17:29:00,
2013-02-05 12:30:00,58.0,42.4,29.84,West,270,2.0,18.0,56,0.00,,CLR,0.00,635.00,VWS V14.01,2013-02-05 17:30:00,
2013-02-05 12:34:00,57.2,42.6,29.86,West,266,7.0,14.0,58,0.00,,FEW033,0.00,336.00,VWS V14.01,2013-02-05 17:34:00,
2013-02-05 12:39:00,57.2,43.5,29.86,West,260,3.0,18.0,60,0.00,,FEW033,0.00,659.00,VWS V14.01,2013-02-05 17:39:00,
2013-02-05 12:44:00,57.3,43.5,29.86,WSW,248,14.0,18.0,60,0.00,,FEW033,0.00,656.00,VWS V14.01,2013-02-05 17:44:00,
2013-02-05 12:49:00,57.3,43.5,29.86,West,259,3.0,18.0,60,0.00,,FEW033,0.00,657.00,VWS V14.01,2013-02-05 17:49:00,
2013-02-05 12:54:00,57.2,43.0,29.86,West,277,2.0,18.0,59,0.00,,FEW033,0.00,652.00,VWS V14.01,2013-02-05 17:54:00,
2013-02-05 12:59:00,57.2,43.0,29.86,SW,235,5.0,18.0,59,0.00,,FEW033,0.00,650.00,VWS V14.01,2013-02-05 17:59:00,
2013-02-05 13:00:00,58.4,41.3,29.83,WSW,246,16.0,19.0,53,0.00,,CLR,0.00,612.00,VWS V14.01,2013-02-05 18:00:00,
2013-02-05 13:04:00,57.5,43.3,29.85,West,263,1.0,13.0,59,0.00,,OVC050,0.00,645.00,VWS V14.01,2013-02-05 18:04:00,
2013-02-05 13:09:00,57.5,43.3,29.85,West,267,9.0,18.0,59,0.00,,OVC050,0.00,643.00,VWS V14.01,2013-02-05 18:09:00,
2013-02-05 13:14:00,57.6,42.5,29.85,West,273,8.0,18.0,57,0.00,,OVC050,0.00,636.00,VWS V14.01,2013-02-05 18:14:00,
2013-02-05 13:19:00,57.8,42.7,29.84,West,273,7.0,18.0,57,0.00,,OVC050,0.00,638.00,VWS V14.01,2013-02-05 18:19:00,
2013-02-05 13:24:00,57.6,42.5,29.84,WSW,244,1.0,18.0,57,0.00,,OVC050,0.00,636.00,VWS V14.01,2013-02-05 18:24:00,
2013-02-05 13:29:00,57.8,42.7,29.84,WNW,288,4.0,18.0,57,0.00,,OVC050,0.00,636.00,VWS V14.01,2013-02-05 18:29:00,
2013-02-05 13:30:00,59.5,40.3,29.82,WSW,250,5.0,18.0,49,0.00,,CLR,0.00,573.00,VWS V14.01,2013-02-05 18:30:00,
2013-02-05 13:34:00,58.1,42.5,29.84,West,273,10.0,15.0,56,0.00,,OVC050,0.00,635.00,VWS V14.01,2013-02-05 18:34:00,
2013-02-05 13:39:00,58.1,43.0,29.84,SW,217,4.0,15.0,57,0.00,,OVC050,0.00,631.00,VWS V14.01,2013-02-05 18:39:00,
2013-02-05 13:44:00,58.3,42.7,29.84,WSW,252,12.0,15.0,56,0.00,,OVC050,0.00,629.00,VWS V14.01,2013-02-05 18:44:00,
2013-02-05 13:49:00,58.0,41.5,29.83,West,268,9.0,18.0,54,0.00,,OVC050,0.00,624.00,VWS V14.01,2013-02-05 18:49:00,
2013-02-05 13:54:00,58.3,41.3,29.83,WSW,248,10.0,19.0,53,0.00,,OVC050,0.00,621.00,VWS V14.01,2013-02-05 18:54:00,
2013-02-05 13:59:00,58.4,41.3,29.83,WSW,252,12.0,19.0,53,0.00,,OVC050,0.00,615.00,VWS V14.01,2013-02-05 18:59:00,
2013-02-05 14:00:00,60.4,37.8,29.82,WNW,302,6.0,24.0,43,0.00,,CLR,0.00,513.00,VWS V14.01,2013-02-05 19:00:00,
2013-02-05 14:05:00,58.4,40.9,29.83,West,273,6.0,18.0,52,0.00,,SCT044,0.00,613.00,VWS V14.01,2013-02-05 19:05:00,
2013-02-05 14:10:00,58.7,42.1,29.83,WNW,286,4.0,18.0,54,0.00,,SCT044,0.00,606.00,VWS V14.01,2013-02-05 19:10:00,
2013-02-05 14:15:00,59.0,40.4,29.83,WSW,256,4.0,18.0,50,0.00,,SCT044,0.00,598.00,VWS V14.01,2013-02-05 19:15:00,
2013-02-05 14:20:00,59.0,40.9,29.82,West,271,5.0,18.0,51,0.00,,SCT044,0.00,594.00,VWS V14.01,2013-02-05 19:20:00,
2013-02-05 14:25:00,59.2,40.1,29.82,West,273,4.0,18.0,49,0.00,,SCT044,0.00,585.00,VWS V14.01,2013-02-05 19:25:00,
2013-02-05 14:30:00,59.3,41.2,29.82,NNW,336,2.0,18.0,51,0.00,,SCT044,0.00,578.00,VWS V14.01,2013-02-05 19:30:00,
2013-02-05 14:35:00,59.5,39.8,29.82,WSW,242,4.0,11.0,48,0.00,,SCT044,0.00,568.00,VWS V14.01,2013-02-05 19:35:00,
2013-02-05 14:40:00,59.6,39.4,29.82,West,265,4.0,17.0,47,0.00,,SCT044,0.00,559.00,VWS V14.01,2013-02-05 19:40:00,
2013-02-05 14:45:00,59.9,39.1,29.82,West,262,6.0,17.0,46,0.00,,SCT044,0.00,550.00,VWS V14.01,2013-02-05 19:45:00,
2013-02-05 14:50:00,59.9,37.4,29.81,West,266,14.0,24.0,43,0.00,,SCT044,0.00,541.00,VWS V14.01,2013-02-05 19:50:00,
2013-02-05 14:55:00,60.1,38.1,29.81,West,270,3.0,24.0,44,0.00,,SCT044,0.00,529.00,VWS V14.01,2013-02-05 19:55:00,
2013-02-05 15:00:00,60.4,37.8,29.81,West,261,6.0,24.0,43,0.00,,SCT044,0.00,520.00,VWS V14.01,2013-02-05 20:00:00,
2013-02-05 15:05:00,60.5,37.9,29.82,West,266,6.0,13.0,43,0.00,,CLR,0.00,506.00,VWS V14.01,2013-02-05 20:05:00,
2013-02-05 15:10:00,60.7,37.5,29.82,WSW,252,7.0,19.0,42,0.00,,CLR,0.00,497.00,VWS V14.01,2013-02-05 20:10:00,
2013-02-05 15:15:00,60.9,37.7,29.82,SSW,209,3.0,19.0,42,0.00,,CLR,0.00,485.00,VWS V14.01,2013-02-05 20:15:00,
2013-02-05 15:20:00,61.2,36.7,29.81,WSW,238,8.0,19.0,40,0.00,,CLR,0.00,473.00,VWS V14.01,2013-02-05 20:20:00,
2013-02-05 15:25:00,61.0,36.5,29.81,West,261,9.0,22.0,40,0.00,,CLR,0.00,462.00,VWS V14.01,2013-02-05 20:25:00,
2013-02-05 15:30:00,60.9,34.5,29.81,WSW,248,13.0,25.0,37,0.00,,CLR,0.00,446.00,VWS V14.01,2013-02-05 20:30:00,
2013-02-05 15:35:00,61.2,33.3,29.81,WSW,250,6.0,16.0,35,0.00,,CLR,0.00,438.00,VWS V14.01,2013-02-05 20:35:00,
2013-02-05 15:40:00,61.0,35.2,29.81,West,266,7.0,20.0,38,0.00,,CLR,0.00,406.00,VWS V14.01,2013-02-05 20:40:00,
2013-02-05 15:45:00,61.2,33.3,29.81,West,268,4.0,20.0,35,0.00,,CLR,0.00,380.00,VWS V14.01,2013-02-05 20:45:00,
2013-02-05 15:50:00,61.3,33.4,29.82,West,266,16.0,23.0,35,0.00,,CLR,0.00,243.00,VWS V14.01,2013-02-05 20:50:00,
2013-02-05 15:55:00,61.3,33.4,29.82,WSW,252,11.0,23.0,35,0.00,,CLR,0.00,385.00,VWS V14.01,2013-02-05 20:55:00,
2013-02-05 16:00:00,61.5,32.9,29.82,West,279,12.0,27.0,34,0.00,,CLR,0.00,265.00,VWS V14.01,2013-02-05 21:00:00,
2013-02-05 16:05:00,61.6,33.7,29.82,West,274,16.0,22.0,35,0.00,,CLR,0.00,285.00,VWS V14.01,2013-02-05 21:05:00,
2013-02-05 16:10:00,61.6,33.7,29.82,WSW,244,9.0,22.0,35,0.00,,CLR,0.00,179.00,VWS V14.01,2013-02-05 21:10:00,
2013-02-05 16:15:00,61.5,34.3,29.82,West,265,16.0,22.0,36,0.00,,CLR,0.00,185.00,VWS V14.01,2013-02-05 21:15:00,
2013-02-05 16:20:00,61.5,34.3,29.81,SW,229,4.0,22.0,36,0.00,,CLR,0.00,105.00,VWS V14.01,2013-02-05 21:20:00,
2013-02-05 16:25:00,61.5,35.0,29.81,WSW,245,6.0,22.0,37,0.00,,CLR,0.00,98.00,VWS V14.01,2013-02-05 21:25:00,
2013-02-05 16:30:00,61.5,36.3,29.81,South,184,0.0,22.0,39,0.00,,CLR,0.00,104.00,VWS V14.01,2013-02-05 21:30:00,
2013-02-05 16:35:00,61.5,35.7,29.81,WSW,244,3.0,8.0,38,0.00,,CLR,0.00,40.00,VWS V14.01,2013-02-05 21:35:00,
2013-02-05 16:40:00,61.5,36.3,29.81,West,274,4.0,10.0,39,0.00,,CLR,0.00,62.00,VWS V14.01,2013-02-05 21:40:00,
2013-02-05 16:45:00,61.6,38.3,29.81,WSW,252,0.0,10.0,42,0.00,,CLR,0.00,81.00,VWS V14.01,2013-02-05 21:45:00,
2013-02-05 16:50:00,61.6,37.1,29.81,WSW,255,4.0,10.0,40,0.00,,CLR,0.00,76.00,VWS V14.01,2013-02-05 21:50:00,
2013-02-05 16:55:00,61.5,37.0,29.81,West,272,0.0,10.0,40,0.00,,CLR,0.00,79.00,VWS V14.01,2013-02-05 21:55:00,
2013-02-05 17:00:00,61.5,36.3,29.81,SW,234,3.0,10.0,39,0.00,,CLR,0.00,79.00,VWS V14.01,2013-02-05 22:00:00,
2013-02-05 17:05:00,61.5,38.8,29.81,West,263,0.0,9.0,43,0.00,,CLR,0.00,65.00,VWS V14.01,2013-02-05 22:05:00,
2013-02-05 17:10:00,61.3,38.0,29.81,WSW,257,7.0,9.0,42,0.00,,CLR,0.00,72.00,VWS V14.01,2013-02-05 22:10:00,
2013-02-05 17:15:00,61.2,36.7,29.81,West,263,2.0,9.0,40,0.00,,CLR,0.00,35.00,VWS V14.01,2013-02-05 22:15:00,
2013-02-05 17:20:00,61.0,36.5,29.82,SW,231,3.0,9.0,40,0.00,,CLR,0.00,47.00,VWS V14.01,2013-02-05 22:20:00,
2013-02-05 17:25:00,60.9,37.1,29.82,WSW,251,4.0,9.0,41,0.00,,CLR,0.00,33.00,VWS V14.01,2013-02-05 22:25:00,
2013-02-05 17:30:00,60.9,37.1,29.82,West,266,1.0,10.0,41,0.00,,CLR,0.00,37.00,VWS V14.01,2013-02-05 22:30:00,
2013-02-05 17:35:00,60.7,36.9,29.83,West,266,1.0,4.0,41,0.00,,CLR,0.00,23.00,VWS V14.01,2013-02-05 22:35:00,
2013-02-05 17:40:00,60.4,37.8,29.83,West,271,0.0,9.0,43,0.00,,CLR,0.00,21.00,VWS V14.01,2013-02-05 22:40:00,
2013-02-05 17:45:00,60.2,36.4,29.83,WSW,243,0.0,9.0,41,0.00,,CLR,0.00,18.00,VWS V14.01,2013-02-05 22:45:00,
2013-02-05 17:50:00,60.1,36.3,29.83,West,265,1.0,9.0,41,0.00,,CLR,0.00,14.00,VWS V14.01,2013-02-05 22:50:00,
2013-02-05 17:55:00,59.9,37.4,29.83,WSW,251,0.0,9.0,43,0.00,,CLR,0.00,11.00,VWS V14.01,2013-02-05 22:55:00,
2013-02-05 18:00:00,59.5,36.4,29.83,WSW,252,0.0,9.0,42,0.00,,CLR,0.00,7.00,VWS V14.01,2013-02-05 23:00:00,
2013-02-05 18:05:00,59.3,36.8,29.83,WSW,247,4.0,5.0,43,0.00,,CLR,0.00,5.00,VWS V14.01,2013-02-05 23:05:00,
2013-02-05 18:10:00,59.2,37.3,29.83,WSW,244,1.0,5.0,44,0.00,,CLR,0.00,0.00,VWS V14.01,2013-02-05 23:10:00,
2013-02-05 18:15:00,58.9,36.5,29.83,WSW,250,4.0,5.0,43,0.00,,CLR,0.00,0.00,VWS V14.01,2013-02-05 23:15:00,
2013-02-05 18:20:00,58.6,37.9,29.84,WSW,251,0.0,5.0,46,0.00,,CLR,0.00,0.00,VWS V14.01,2013-02-05 23:20:00,
2013-02-05 18:25:00,58.1,36.9,29.84,WSW,244,0.0,5.0,45,0.00,,CLR,0.00,0.00,VWS V14.01,2013-02-05 23:25:00,
2013-02-05 18:30:00,57.6,36.4,29.84,SW,236,0.0,5.0,45,0.00,,CLR,0.00,0.00,VWS V14.01,2013-02-05 23:30:00,
2013-02-05 18:35:00,57.0,38.0,29.84,SW,236,0.0,0.0,49,0.00,,CLR,0.00,0.00,VWS V14.01,2013-02-05 23:35:00,
2013-02-05 18:40:00,56.7,38.3,29.84,SW,236,0.0,0.0,50,0.00,,CLR,0.00,0.00,VWS V14.01,2013-02-05 23:40:00,
2013-02-05 18:45:00,56.3,38.4,29.84,SW,236,0.0,0.0,51,0.00,,CLR,0.00,0.00,VWS V14.01,2013-02-05 23:45:00,
2013-02-05 18:50:00,55.9,39.0,29.84,SSW,213,2.0,2.0,53,0.00,,CLR,0.00,0.00,VWS V14.01,2013-02-05 23:50:00,
2013-02-05 18:55:00,55.9,40.9,29.84,SW,215,0.0,2.0,57,0.00,,CLR,0.00,0.00,VWS V14.01,2013-02-05 23:55:00,
2013-02-05 19:00:00,55.7,41.6,29.84,SW,217,0.0,3.0,59,0.00,,CLR,0.00,0.00,VWS V14.01,2013-02-06 00:00:00,
2013-02-05 19:05:00,55.6,42.4,29.85,SW,217,0.0,0.0,61,0.00,,CLR,0.00,0.00,VWS V14.01,2013-02-06 00:05:00,
2013-02-05 19:10:00,55.6,42.8,29.85,SSW,211,0.0,1.0,62,0.00,,CLR,0.00,0.00,VWS V14.01,2013-02-06 00:10:00,
2013-02-05 19:15:00,55.6,43.2,29.85,SSW,201,0.0,3.0,63,0.00,,CLR,0.00,0.00,VWS V14.01,2013-02-06 00:15:00,
2013-02-05 19:20:00,55.6,43.2,29.86,South,180,0.0,5.0,63,0.00,,CLR,0.00,0.00,VWS V14.01,2013-02-06 00:20:00,
2013-02-05 19:25:00,55.4,43.4,29.86,South,181,0.0,5.0,64,0.00,,CLR,0.00,0.00,VWS V14.01,2013-02-06 00:25:00,
2013-02-05 19:30:00,55.3,43.3,29.86,South,181,0.0,5.0,64,0.00,,CLR,0.00,0.00,VWS V14.01,2013-02-06 00:30:00,
2013-02-05 19:35:00,55.1,43.6,29.87,South,181,0.0,0.0,65,0.00,,CLR,0.00,0.00,VWS V14.01,2013-02-06 00:35:00,
2013-02-05 19:40:00,54.8,43.7,29.87,South,181,0.0,0.0,66,0.00,,CLR,0.00,0.00,VWS V14.01,2013-02-06 00:40:00,
2013-02-05 19:45:00,54.7,43.6,29.87,South,181,0.0,2.0,66,0.00,,CLR,0.00,0.00,VWS V14.01,2013-02-06 00:45:00,
2013-02-05 19:50:00,54.5,43.8,29.87,South,181,0.0,2.0,67,0.00,,CLR,0.00,0.00,VWS V14.01,2013-02-06 00:50:00,
2013-02-05 19:55:00,54.4,44.1,29.87,South,184,0.0,2.0,68,0.00,,CLR,0.00,0.00,VWS V14.01,2013-02-06 00:55:00,
2013-02-05 20:00:00,54.2,43.9,29.87,South,184,0.0,2.0,68,0.00,,CLR,0.00,0.00,VWS V14.01,2013-02-06 01:00:00,
2013-02-05 20:05:00,54.1,44.2,29.87,South,184,0.0,0.0,69,0.00,,CLR,0.00,0.00,VWS V14.01,2013-02-06 01:05:00,
2013-02-05 20:10:00,53.9,44.3,29.87,South,184,0.0,1.0,70,0.00,,CLR,0.00,0.00,VWS V14.01,2013-02-06 01:10:00,
2013-02-05 20:15:00,53.8,44.3,29.87,South,184,0.0,1.0,70,0.00,,CLR,0.00,0.00,VWS V14.01,2013-02-06 01:15:00,
2013-02-05 20:20:00,53.6,44.4,29.88,South,184,0.0,1.0,71,0.00,,CLR,0.00,0.00,VWS V14.01,2013-02-06 01:20:00,
2013-02-05 20:25:00,53.5,44.7,29.88,South,184,0.0,1.0,72,0.00,,CLR,0.00,0.00,VWS V14.01,2013-02-06 01:25:00,
2013-02-05 20:30:00,53.1,44.3,29.88,South,184,0.0,1.0,72,0.00,,CLR,0.00,0.00,VWS V14.01,2013-02-06 01:30:00,
2013-02-05 20:35:00,52.8,44.0,29.88,South,184,0.0,0.0,72,0.00,,CLR,0.00,0.00,VWS V14.01,2013-02-06 01:35:00,
2013-02-05 20:40:00,52.5,44.1,29.88,South,184,0.0,0.0,73,0.00,,CLR,0.00,0.00,VWS V14.01,2013-02-06 01:40:00,
2013-02-05 20:45:00,52.3,43.9,29.88,South,184,0.0,0.0,73,0.00,,CLR,0.00,0.00,VWS V14.01,2013-02-06 01:45:00,
2013-02-05 20:50:00,52.0,44.0,29.88,South,184,0.0,0.0,74,0.00,,CLR,0.00,0.00,VWS V14.01,2013-02-06 01:50:00,
2013-02-05 20:55:00,51.7,44.0,29.88,South,184,0.0,0.0,75,0.00,,CLR,0.00,0.00,VWS V14.01,2013-02-06 01:55:00,
2013-02-05 21:00:00,51.7,44.0,29.88,South,184,0.0,0.0,75,0.00,,CLR,0.00,0.00,VWS V14.01,2013-02-06 02:00:00,
2013-02-05 21:05:00,51.6,44.6,29.89,South,184,0.0,0.0,77,0.00,,CLR,0.00,0.00,VWS V14.01,2013-02-06 02:05:00,
2013-02-05 21:10:00,51.4,44.8,29.89,South,184,0.0,0.0,78,0.00,,CLR,0.00,0.00,VWS V14.01,2013-02-06 02:10:00,
2013-02-05 21:15:00,51.1,44.8,29.89,South,184,0.0,0.0,79,0.00,,CLR,0.00,0.00,VWS V14.01,2013-02-06 02:15:00,
2013-02-05 21:20:00,51.0,45.1,29.89,South,184,0.0,0.0,80,0.00,,CLR,0.00,0.00,VWS V14.01,2013-02-06 02:20:00,
2013-02-05 21:25:00,51.0,44.4,29.89,South,184,0.0,0.0,78,0.00,,CLR,0.00,0.00,VWS V14.01,2013-02-06 02:25:00,
2013-02-05 21:30:00,50.7,44.1,29.89,South,184,0.0,0.0,78,0.00,,CLR,0.00,0.00,VWS V14.01,2013-02-06 02:30:00,
2013-02-05 21:35:00,50.7,44.8,29.89,South,184,0.0,0.0,80,0.00,,CLR,0.00,0.00,VWS V14.01,2013-02-06 02:35:00,
2013-02-05 21:40:00,50.5,44.9,29.89,South,184,0.0,0.0,81,0.00,,CLR,0.00,0.00,VWS V14.01,2013-02-06 02:40:00,
2013-02-05 21:45:00,50.4,44.8,29.89,South,184,0.0,0.0,81,0.00,,CLR,0.00,0.00,VWS V14.01,2013-02-06 02:45:00,
2013-02-05 21:50:00,50.2,44.3,29.90,South,184,0.0,0.0,80,0.00,,CLR,0.00,0.00,VWS V14.01,2013-02-06 02:50:00,
2013-02-05 21:55:00,50.1,44.8,29.90,South,184,1.0,3.0,82,0.00,,CLR,0.00,0.00,VWS V14.01,2013-02-06 02:55:00,
2013-02-05 22:00:00,49.9,45.3,29.90,South,184,0.0,3.0,84,0.00,,CLR,0.00,0.00,VWS V14.01,2013-02-06 03:00:00,
2013-02-05 22:05:00,49.5,44.9,29.90,South,184,0.0,0.0,84,0.00,,CLR,0.00,0.00,VWS V14.01,2013-02-06 03:05:00,
2013-02-05 22:10:00,49.4,44.5,29.90,South,184,0.0,0.0,83,0.00,,CLR,0.00,0.00,VWS V14.01,2013-02-06 03:10:00,
2013-02-05 22:15:00,49.2,44.6,29.90,South,184,0.0,0.0,84,0.00,,CLR,0.00,0.00,VWS V14.01,2013-02-06 03:15:00,
2013-02-05 22:20:00,49.1,44.5,29.90,South,184,0.0,0.0,84,0.00,,CLR,0.00,0.00,VWS V14.01,2013-02-06 03:20:00,
2013-02-05 22:25:00,49.1,44.2,29.90,South,184,0.0,0.0,83,0.00,,CLR,0.00,0.00,VWS V14.01,2013-02-06 03:25:00,
2013-02-05 22:30:00,49.1,44.5,29.90,South,184,0.0,0.0,84,0.00,,CLR,0.00,0.00,VWS V14.01,2013-02-06 03:30:00,
2013-02-05 22:35:00,48.9,44.0,29.90,South,184,0.0,0.0,83,0.00,,CLR,0.00,0.00,VWS V14.01,2013-02-06 03:35:00,
2013-02-05 22:40:00,48.9,44.0,29.90,South,184,0.0,1.0,83,0.00,,CLR,0.00,0.00,VWS V14.01,2013-02-06 03:40:00,
2013-02-05 22:45:00,48.9,44.0,29.90,South,184,0.0,1.0,83,0.00,,CLR,0.00,0.00,VWS V14.01,2013-02-06 03:45:00,
2013-02-05 22:50:00,48.8,43.9,29.90,South,184,0.0,1.0,83,0.00,,CLR,0.00,0.00,VWS V14.01,2013-02-06 03:50:00,
2013-02-05 22:55:00,48.6,43.7,29.90,South,184,0.0,1.0,83,0.00,,CLR,0.00,0.00,VWS V14.01,2013-02-06 03:55:00,
2013-02-05 23:00:00,48.3,43.7,29.90,South,184,0.0,1.0,84,0.00,,CLR,0.00,0.00,VWS V14.01,2013-02-06 04:00:00,
2013-02-05 23:05:00,48.2,44.2,29.90,South,184,0.0,0.0,86,0.00,,CLR,0.00,0.00,VWS V14.01,2013-02-06 04:05:00,
2013-02-05 23:10:00,47.9,44.2,29.90,South,184,0.0,0.0,87,0.00,,CLR,0.00,0.00,VWS V14.01,2013-02-06 04:10:00,
2013-02-05 23:15:00,48.0,44.6,29.90,West,262,1.0,4.0,88,0.00,,CLR,0.00,0.00,VWS V14.01,2013-02-06 04:15:00,
2013-02-05 23:20:00,48.3,44.6,29.90,West,278,0.0,4.0,87,0.00,,CLR,0.00,0.00,VWS V14.01,2013-02-06 04:20:00,
2013-02-05 23:25:00,48.3,44.3,29.90,West,278,0.0,4.0,86,0.00,,CLR,0.00,0.00,VWS V14.01,2013-02-06 04:25:00,
2013-02-05 23:30:00,48.5,44.8,29.90,West,278,0.0,4.0,87,0.00,,CLR,0.00,0.00,VWS V14.01,2013-02-06 04:30:00,
2013-02-05 23:35:00,48.3,44.0,29.90,West,278,0.0,0.0,85,0.00,,CLR,0.00,0.00,VWS V14.01,2013-02-06 04:35:00,
2013-02-05 23:40:00,47.9,44.2,29.90,West,278,0.0,1.0,87,0.00,,CLR,0.00,0.00,VWS V14.01,2013-02-06 04:40:00,
2013-02-05 23:45:00,47.3,43.3,29.90,West,278,0.0,1.0,86,0.00,,CLR,0.00,0.00,VWS V14.01,2013-02-06 04:45:00,
2013-02-05 23:50:00,46.8,43.1,29.90,West,278,0.0,1.0,87,0.00,,CLR,0.00,0.00,VWS V14.01,2013-02-06 04:50:00,
2013-02-05 23:55:00,46.8,43.1,29.90,West,277,0.0,1.0,87,0.00,,CLR,0.00,0.00,VWS V14.01,2013-02-06 04:55:00,